Date String (YYYY-MM-DD hh:mm:ss) UTC,Instrument flags,absolute air pressure of the measurement (hPa),sample flow rate (lpm),inlet stack bypass flow (lpm),air temperature of the measurement (°C),ambient temperature measured by the external sensor (°C),aerosol sample conditioner tube jacket temperature (°C),OPC LED temperature (°C),internal box temperature (°C),relative humidity of the measurement (%),span deviation,mass concentration of particles derived from Lorenz-Mie calculation of OPC scattering (μg/m³),mass concentration of particles derived from Lorenz-Mie calculation of OPC scattering (μg/m³),mass concentration of particles derived from Lorenz-Mie calculation of OPC scattering (μg/m³)
DateTimeUTC,F1_M11,P_M11,Q1_M11,Q2_M11,T1_M11,T2_M11,T3_M11,T4_M11,T5_M11,U1_M11,ZSPAN_M11,X0_M11,X2_M11,X1_M11
2024-05-21 05:00:00,SystemResetWarning,0824.9,5.01,000.00,029.7,028.9,000.0,038.3,031.4,017.0,0000.0,0003.08,0000.57,0000.30
2024-05-21 05:01:00,SystemResetWarning,0824.9,5.01,000.00,029.7,028.9,000.0,038.3,031.4,017.0,0000.0,0002.19,0000.54,0000.31
2024-05-21 05:02:00,SystemResetWarning,0824.9,5.00,000.00,029.7,028.8,000.0,038.3,031.4,017.1,0000.0,0002.85,0000.55,0000.31
2024-05-21 05:03:00,SystemResetWarning,0824.9,4.99,000.00,029.7,028.8,000.0,038.3,031.4,017.1,0000.0,0004.81,0000.55,0000.32
2024-05-21 05:04:00,SystemResetWarning,0824.9,4.99,000.00,029.7,028.8,000.0,038.3,031.4,017.0,0000.0,0005.32,0000.54,0000.31
2024-05-21 05:05:00,SystemResetWarning,0824.9,5.00,000.00,029.7,028.8,000.0,038.3,031.4,017.0,0000.0,0005.45,0000.53,0000.31
2024-05-21 05:06:00,SystemResetWarning,0825.0,5.00,000.00,029.7,028.8,000.0,038.3,031.4,017.0,0000.0,0005.47,0000.52,0000.30
2024-05-21 05:07:00,SystemResetWarning,0825.0,5.01,000.00,029.7,028.8,000.0,038.3,031.4,017.1,0000.0,0005.48,0000.53,0000.31
2024-05-21 05:08:00,SystemResetWarning,0825.1,5.01,000.00,029.7,028.8,000.0,038.3,031.4,017.1,0000.0,0005.46,0000.51,0000.30
2024-05-21 05:09:00,SystemResetWarning,0825.1,5.01,000.00,029.6,028.8,000.0,038.2,031.4,017.1,0000.0,0005.31,0000.47,0000.29
2024-05-21 05:10:00,SystemResetWarning,0825.1,5.00,000.00,029.6,028.7,000.0,038.2,031.4,017.1,0000.0,0004.67,0000.48,0000.30
2024-05-21 05:11:00,SystemResetWarning,0825.1,5.00,000.00,029.6,028.7,000.0,038.2,031.4,017.1,0000.0,0004.21,0000.49,0000.30
2024-05-21 05:12:00,SystemResetWarning,0825.1,5.00,000.00,029.6,028.7,000.0,038.2,031.4,017.1,0000.0,0004.24,0000.49,0000.30
2024-05-21 05:13:00,SystemResetWarning,0825.1,4.99,000.00,029.6,028.7,000.0,038.2,031.3,017.2,0000.0,0004.29,0000.47,0000.30
2024-05-21 05:14:00,SystemResetWarning,0825.1,5.00,000.00,029.6,028.7,000.0,038.2,031.3,017.3,0000.0,0002.62,0000.48,0000.30
2024-05-21 05:15:00,SystemResetWarning,0825.1,4.99,000.00,029.6,028.7,000.0,038.2,031.3,017.3,0000.0,0001.81,0000.47,0000.30
2024-05-21 05:16:00,SystemResetWarning,0825.1,5.01,000.00,029.6,028.7,000.0,038.2,031.3,017.3,0000.0,0001.72,0000.45,0000.30
2024-05-21 05:17:00,SystemResetWarning,0825.1,5.00,000.00,029.6,028.7,000.0,038.2,031.3,017.3,0000.0,0002.50,0000.48,0000.31
2024-05-21 05:18:00,SystemResetWarning,0825.1,4.99,000.00,029.6,028.7,000.0,038.2,031.3,017.4,0000.0,0003.46,0000.48,0000.32
2024-05-21 05:19:00,SystemResetWarning,0825.2,4.99,000.00,029.6,028.7,000.0,038.2,031.3,017.4,0000.0,0003.58,0000.51,0000.32
2024-05-21 05:20:00,SystemResetWarning,0825.2,5.00,000.00,029.5,028.6,000.0,038.2,031.3,017.5,0000.0,0003.61,0000.54,0000.32
2024-05-21 05:21:00,SystemResetWarning,0825.2,5.00,000.00,029.5,028.6,000.0,038.1,031.3,017.7,0000.0,0003.59,0000.54,0000.32
2024-05-21 05:22:00,SystemResetWarning,0825.2,5.01,000.00,029.5,028.6,000.0,038.1,031.3,017.6,0000.0,0003.66,0000.57,0000.32
2024-05-21 05:23:00,SystemResetWarning,0825.2,5.00,000.00,029.5,028.6,000.0,038.1,031.3,017.6,0000.0,0003.64,0000.56,0000.32
2024-05-21 05:24:00,SystemResetWarning,0825.2,5.00,000.00,029.5,028.6,000.0,038.1,031.2,017.8,0000.0,0003.25,0000.56,0000.31
2024-05-21 05:25:00,SystemResetWarning,0825.2,5.00,000.00,029.5,028.6,000.0,038.1,031.2,017.7,0000.0,0002.77,0000.53,0000.31
2024-05-21 05:26:00,SystemResetWarning,0825.2,5.00,000.00,029.5,028.6,000.0,038.1,031.2,017.7,0000.0,0002.74,0000.52,0000.31
2024-05-21 05:27:00,SystemResetWarning,0825.2,5.00,000.00,029.5,028.6,000.0,038.1,031.2,017.6,0000.0,0002.67,0000.51,0000.31
2024-05-21 05:28:00,SystemResetWarning,0825.2,5.00,000.00,029.5,028.6,000.0,038.1,031.2,017.6,0000.0,0002.43,0000.52,0000.31
2024-05-21 05:29:00,SystemResetWarning,0825.2,5.00,000.00,029.5,028.6,000.0,038.1,031.2,017.8,0000.0,0002.00,0000.53,0000.30
2024-05-21 05:30:00,SystemResetWarning,0825.3,5.00,000.00,029.5,028.6,000.0,038.1,031.2,018.0,0000.0,0002.09,0000.53,0000.30
2024-05-21 05:31:00,SystemResetWarning,0825.3,5.00,000.00,029.5,028.6,000.0,038.1,031.2,018.0,0000.0,0002.06,0000.50,0000.31
2024-05-21 05:32:00,SystemResetWarning,0825.4,5.00,000.00,029.5,028.6,000.0,038.1,031.2,018.0,0000.0,0002.25,0000.52,0000.31
2024-05-21 05:33:00,SystemResetWarning,0825.4,5.01,000.00,029.4,028.6,000.0,038.1,031.2,018.1,0000.0,0002.22,0000.51,0000.31
2024-05-21 05:34:00,SystemResetWarning,0825.4,5.00,000.00,029.4,028.6,000.0,038.0,031.2,018.1,0000.0,0002.53,0000.55,0000.32
2024-05-21 05:35:00,SystemResetWarning,0825.3,5.00,000.00,029.4,028.5,000.0,038.0,031.2,018.3,0000.0,0002.65,0000.59,0000.33
2024-05-21 05:36:00,SystemResetWarning,0825.3,5.01,000.00,029.4,028.5,000.0,038.0,031.1,018.4,0000.0,0002.66,0000.61,0000.34
2024-05-21 05:37:00,SystemResetWarning,0825.3,4.99,000.00,029.4,028.4,000.0,038.0,031.1,018.6,0000.0,0002.75,0000.64,0000.35
2024-05-21 05:38:00,SystemResetWarning,0825.3,5.00,000.00,029.3,028.4,000.0,038.0,031.0,018.4,0000.0,0003.58,0000.68,0000.36
2024-05-21 05:39:00,SystemResetWarning,0825.2,5.00,000.00,029.3,028.4,000.0,038.0,031.0,018.6,0000.0,0003.40,0000.69,0000.37
2024-05-21 05:40:00,SystemResetWarning,0825.2,5.00,000.00,029.3,028.4,000.0,038.0,031.0,018.6,0000.0,0003.41,0000.71,0000.38
2024-05-21 05:41:00,SystemResetWarning,0825.1,5.00,000.00,029.3,028.3,000.0,038.0,030.9,018.7,0000.0,0003.66,0000.70,0000.38
2024-05-21 05:42:00,SystemResetWarning,0824.9,5.00,000.00,029.2,028.3,000.0,038.0,030.9,018.8,0000.0,0004.04,0000.71,0000.38
2024-05-21 05:43:00,SystemResetWarning,0824.9,5.00,000.00,029.2,028.3,000.0,037.9,030.9,019.0,0000.0,0004.24,0000.69,0000.38
2024-05-21 05:44:00,SystemResetWarning,0824.9,5.00,000.00,029.2,028.2,000.0,037.9,030.8,019.0,0000.0,0005.39,0000.72,0000.39
2024-05-21 05:45:00,SystemResetWarning,0824.8,5.00,000.00,029.1,028.2,000.0,037.9,030.8,019.2,0000.0,0006.49,0000.70,0000.39
2024-05-21 05:46:00,SystemResetWarning,0824.9,5.00,000.00,029.1,028.2,000.0,037.9,030.7,019.3,0000.0,0006.41,0000.69,0000.39
2024-05-21 05:47:00,SystemResetWarning,0824.9,5.01,000.00,029.0,028.1,000.0,037.9,030.7,019.5,0000.0,0006.42,0000.69,0000.39
2024-05-21 05:48:00,SystemResetWarning,0824.9,5.00,000.00,029.0,028.1,000.0,037.8,030.7,019.5,0000.0,0006.51,0000.71,0000.39
2024-05-21 05:49:00,SystemResetWarning,0824.9,5.00,000.00,029.0,028.1,000.0,037.8,030.7,019.6,0000.0,0005.59,0000.69,0000.39
2024-05-21 05:50:00,SystemResetWarning,0824.9,5.00,000.00,029.0,028.0,000.0,037.8,030.7,019.6,0000.0,0005.11,0000.68,0000.39
2024-05-21 05:51:00,SystemResetWarning,0824.9,5.00,000.00,029.0,028.0,000.0,037.7,030.7,019.7,0000.0,0005.90,0000.68,0000.39
2024-05-21 05:52:00,SystemResetWarning,0824.9,5.00,000.00,029.0,028.0,000.0,037.7,030.7,019.8,0000.0,0005.83,0000.70,0000.41
2024-05-21 05:53:00,SystemResetWarning,0825.0,5.00,000.00,029.0,028.0,000.0,037.7,030.7,019.9,0000.0,0005.65,0000.75,0000.42
2024-05-21 05:54:00,SystemResetWarning,0825.0,5.00,000.00,029.0,028.1,000.0,037.7,030.7,020.1,0000.0,0006.11,0000.78,0000.44
2024-05-21 05:55:00,SystemResetWarning,0825.0,5.00,000.00,029.0,028.1,000.0,037.7,030.7,020.1,0000.0,0005.69,0000.80,0000.47
2024-05-21 05:56:00,SystemResetWarning,0825.1,5.00,000.00,029.0,028.1,000.0,037.7,030.7,020.1,0000.0,0004.83,0000.86,0000.51
2024-05-21 05:57:00,SystemResetWarning,0825.1,5.00,000.00,029.0,028.1,000.0,037.6,030.7,020.2,0000.0,0004.93,0000.92,0000.55
2024-05-21 05:58:00,SystemResetWarning,0825.2,5.01,000.00,029.0,028.1,000.0,037.6,030.7,020.3,0000.0,0005.03,0000.98,0000.60
2024-05-21 05:59:00,SystemResetWarning,0825.2,4.99,000.00,029.0,028.1,000.0,037.6,030.8,020.3,0000.0,0005.01,0001.01,0000.65
